CST,Max TemperatureF,Mean TemperatureF,Min TemperatureF,Max Dew PointF,MeanDew PointF,Min DewpointF,Max Humidity, Mean Humidity, Min Humidity, Max Sea Level PressureIn, Mean Sea Level PressureIn, Min Sea Level PressureIn, Max VisibilityMiles, Mean VisibilityMiles, Min VisibilityMiles, Max Wind SpeedMPH, Mean Wind SpeedMPH, Max Gust SpeedMPH,PrecipitationIn, CloudCover, Events, WindDirDegrees
2011-11-1,52,47,42,42,33,28,76,59,42,30.27,30.05,29.84,10,10,10,22,12,29,0.01,6,Rain,335
2011-11-2,49,36,22,28,21,15,85,56,26,30.42,30.37,30.26,10,10,10,18,8,26,0.00,1,,340
2011-11-3,56,39,22,30,22,17,92,58,24,30.31,30.14,29.93,10,10,10,28,14,36,0.00,0,,162
2011-11-4,57,47,37,31,26,23,58,45,32,29.91,29.76,29.64,10,10,9,33,20,43,0.00,0,Snow,169
2011-11-5,56,47,38,34,32,29,73,57,41,29.60,29.40,29.26,10,10,10,24,14,30,0.00,0,,166
2011-11-6,46,40,33,32,22,13,82,54,25,29.95,29.62,29.35,10,10,10,32,20,98,0.00,3,,280
2011-11-7,47,35,23,23,20,17,75,53,31,30.22,30.15,30.00,10,10,10,17,7,25,0.00,0,,264
2011-11-8,51,38,24,28,23,19,92,61,30,30.22,30.16,30.10,10,10,10,13,6,17,0.00,0,,207
2011-11-9,45,35,24,22,19,15,88,60,31,30.36,30.30,30.22,10,10,10,30,14,40,0.00,0,,315
2011-11-10,46,30,13,26,20,11,92,62,31,30.30,30.08,29.73,10,10,10,18,8,24,0.00,0,,180
2011-11-11,62,46,29,26,22,18,69,45,20,29.70,29.61,29.45,10,10,10,16,7,25,0.00,0,,288
2011-11-12,50,39,28,29,26,22,92,64,36,29.44,29.30,29.21,10,10,10,12,3,14,0.00,0,,155
2011-11-13,52,43,33,30,26,21,82,56,30,29.40,29.33,29.27,10,10,10,23,11,29,0.00,3,,289
2011-11-14,50,41,31,29,25,20,78,55,31,29.52,29.47,29.39,10,10,10,23,10,29,0.00,1,,284
2011-11-15,39,28,17,28,19,12,92,66,40,30.05,29.81,29.52,10,10,10,30,14,38,0.00,1,,304
2011-11-16,33,22,10,13,10,6,88,61,33,30.25,30.19,30.06,10,10,10,26,11,36,0.00,1,,310
2011-11-17,38,23,8,19,11,6,92,62,32,30.22,29.93,29.59,10,10,2,22,10,26,0.00,2,,129
2011-11-18,42,31,20,28,20,12,75,60,45,29.87,29.70,29.59,10,10,10,21,10,28,0.00,6,,341
2011-11-19,21,13,5,12,9,3,91,76,61,30.30,30.07,29.83,10,7,1,23,11,26,0.02,8,Snow,21
2011-11-20,24,14,4,18,10,3,96,82,68,30.31,30.20,30.08,10,9,2,20,10,24,T,6,Snow,135
2011-11-21,34,20,5,25,16,3,100,85,69,30.18,30.09,29.98,10,5,0,12,4,13,0.00,3,Fog,254
2011-11-22,44,29,13,32,21,12,100,80,60,30.06,30.00,29.96,10,6,0,10,4,16,0.00,2,Fog,160
2011-11-23,54,39,23,35,29,22,100,73,46,30.02,29.93,29.78,10,10,8,18,8,22,0.00,0,,146
2011-11-24,55,42,29,36,31,27,100,72,43,29.76,29.70,29.64,10,10,10,9,4,12,0.00,0,,136
2011-11-25,44,36,28,32,29,26,100,81,62,29.88,29.70,29.62,10,10,6,20,7,25,0.00,3,,350
2011-11-26,39,27,14,31,17,2,89,55,21,30.43,30.23,29.86,10,10,3,38,19,48,0.00,2,,327
2011-11-27,45,27,9,21,15,7,92,60,28,30.41,30.23,29.96,10,10,10,15,8,20,0.00,0,,156
2011-11-28,52,34,16,31,24,16,88,66,44,30.42,30.16,29.92,10,10,10,22,7,29,0.00,0,,360
2011-11-29,46,31,15,26,20,12,100,71,41,30.41,30.26,29.99,10,10,10,21,7,25,0.00,1,,148
2011-11-30,41,32,22,30,26,21,92,74,55,30.33,30.02,29.88,10,9,2,22,8,28,T,6,Snow,25